Volver al catálogo

CZ-2D DEB

ActivoSSO
NORAD 35574·DEBRIS·🇨🇳 China

Lanzado Nov 5, 2008 desde Jiuquan Satellite Launch Center

Loading…

Próximos Pases (próximas 24 horas)

TLE

ActualizadoSource: Space-Track

Época: Sep 14, 2026, 06:55 UTC

1 35574U 08056F   26257.28862198  .00001691  00000-0  35495-3 0  9995
2 35574  98.2955 281.9241 0107152   7.2408 353.0308 14.57441051935920

Sigue CZ-2D DEB en tiempo real con AllMySat

Download on the App Store